This demonstration page uses our WeatherBlox Daily Observations layout. Learn more.

Left ArrowRight Arrow

39.92423, -83.80882

Hourly Observations for May 22, 2020

Temp ( °F °C ) Dew Point ( °F °C ) Humidity (%) Winds ( mph kmh ) Pressure ( in mb ) Visibility ( mi km ) Precip ( " mm )
12:44 am 00:44 Cloudy 57 14 57 14 100 100 E 8 13 30.08 1018 8 12.87472 0 0
12:56 am 00:56 Cloudy 58 14.4 58 14.4 100 100 ESE 7 11 30.08 1019 7 11.26538 0 0
1:49 am 01:49 Cloudy with Mist and Fog 57 14 57 14 100 100 ESE 7 11 30.08 1018 2.5 4.02335 0 0
1:56 am 01:56 Cloudy with Mist and Fog 58 14.4 58 14.4 100 100 ESE 7 11 30.08 1019 2.5 4.02335 0 0
2:10 am 02:10 Cloudy with Mist and Fog 57 14 57 14 100 100 SE 6 9 30.07 1018 3 4.82802 0 0
2:56 am 02:56 Cloudy 58 14.4 58 14.4 100 100 ESE 7 11 30.07 1018 9 14.48406 0 0
3:56 am 03:56 Cloudy N/A N/A N/A SE 7 11 N/A 8 12.87472 0 0
4:56 am 04:56 Cloudy 58 14.4 58 14.4 100 100 SE 5 7 30.06 1018 8 12.87472 0 0
5:56 am 05:56 Cloudy 58 14.4 58 14.4 100 100 SE 3 6 30.06 1018 7 11.26538 0 0
6:05 am 06:05 Cloudy 57 14 57 14 100 100 SE 5 7 30.06 1018 7 11.26538 0 0
6:38 am 06:38 Cloudy with Mist and Fog 57 14 57 14 100 100 SE 5 7 30.06 1018 6 9.65604 0 0
6:53 am 06:53 Cloudy with Mist and Fog 57 14 57 14 100 100 SE 5 7 30.06 1018 5 8.0467 0 0
6:56 am 06:56 Cloudy with Mist and Fog 58 14.4 58 14.4 100 100 SE 5 7 30.06 1018 5 8.0467 0 0
7:56 am 07:56 Cloudy with Mist and Fog 59 15 59 15 100 100 ESE 6 9 30.06 1018 4 6.43736 0 0
8:56 am 08:56 Cloudy 59 15 59 15 100 100 ESE 3 6 30.07 1018 8 12.87472 0 0
9:17 am 09:17 Cloudy 61 16 61 16 100 100 SSE 5 7 30.06 1018 10 16.0934 0 0
9:40 am 09:40 Cloudy 61 16 61 16 100 100 Calm 30.06 1018 10 16.0934 0 0
9:56 am 09:56 Cloudy 62 16.7 61 16.1 96 96 SE 5 7 30.07 1018 10 16.0934 0 0
10:19 am 10:19 Cloudy 63 17 61 16 94 94 S 3 6 30.06 1018 10 16.0934 0 0
10:56 am 10:56 Cloudy 63 17.2 61 16.1 93 93 VRB 3 6 30.07 1018 10 16.0934 0 0
11:04 am 11:04 Cloudy 63 17 61 16 94 94 ESE 5 7 30.06 1018 10 16.0934 0 0
11:15 am 11:15 Cloudy 63 17 61 16 94 94 SSE 6 9 30.05 1018 10 16.0934 0 0
11:56 am 11:56 Mostly Cloudy 66 18.9 60 15.6 81 81 SE 5 7 30.06 1018 10 16.0934 0 0
12:05 pm 12:05 Mostly Cloudy 66 19 61 16 83 83 VRB 5 7 30.04 1017 10 16.0934 0 0
12:52 pm 12:52 Partly Cloudy 66 19 59 15 78 78 Calm 30.03 1017 10 16.0934 0 0
12:56 pm 12:56 Mostly Cloudy 68 20 60 15.6 76 76 Calm 30.05 1018 10 16.0934 0 0
1:56 pm 13:56 Mostly Cloudy 70 21.1 60 15.6 71 71 Calm 30.04 1017 10 16.0934 0 0
2:18 pm 14:18 Cloudy 70 21 61 16 73 73 SE 5 7 30.01 1016 10 16.0934 0 0
2:28 pm 14:28 Cloudy 68 20 59 15 73 73 Calm 30 1016 10 16.0934 0 0
2:56 pm 14:56 Cloudy with Light Rain 68 20 60 15.6 76 76 W 6 9 30.03 1017 10 16.0934 0 0
3:56 pm 15:56 Cloudy with Haze 69 20.6 61 16.1 76 76 E 3 6 29.99 1016 5 8.0467 0 0
4:56 pm 16:56 Hazy 71 21.7 59 15 66 66 Calm 30 1016 6 9.65604 0 0
5:56 pm 17:56 Mostly Cloudy 69 20.6 59 15 70 70 ENE 3 6 29.99 1016 10 16.0934 0 0
6:56 pm 18:56 Mostly Cloudy 70 21.1 59 15 68 68 Calm 29.98 1015 10 16.0934 0 0
7:56 pm 19:56 Sunny 68 20 62 16.7 81 81 E 3 6 29.98 1015 10 16.0934 0 0
8:56 pm 20:56 Clear 65 18.3 62 16.7 90 90 E 3 6 29.98 1015 10 16.0934 0 0
9:56 pm 21:56 Clear 61 16.1 61 16.1 100 100 ENE 3 6 30.01 1016 10 16.0934 0 0
10:56 pm 22:56 Clear 61 16.1 61 16.1 100 100 ESE 3 6 30.03 1017 10 16.0934 0 0
11:56 pm 23:56 Clear 59 15 59 15 100 100 ESE 6 9 30.02 1017 10 16.0934 0 0

Powered by AerisWeather